Theta_e
285 285 286 285 285 285 284 283 283 283 283 283 282 282 282 283 284 285 285 286 286 286 286 286 286 286 287 287 287 288 288 288 288 287 287 287 287 287 287 287 287 286 286 286 286 286 285 285 285 285 285 285 285 285 285 285 285 285 285 285 285 285 285 285 285 285 285 285 285 286 286 286 286 285 285 285 286 286 286 286 285 285 285 286 286
283 285 285 284 284 283 283 282 282 282 282 281 281 281 281 281 282 283 284 285 285 285 285 285 285 285 285 286 286 286 287 287 287 287 286 287 287 287 286 286 286 286 286 286 286 286 285 285 285 285 285 285 285 285 285 285 284 285 285 285 285 285 285 285 285 285 285 285 285 285 286 285 285 285 285 285 285 285 285 285 285 285 285 286 286
283 284 283 283 282 282 281 281 281 281 281 280 280 280 279 279 280 281 282 283 284 284 284 285 285 285 284 285 285 285 285 286 286 286 286 286 286 286 286 286 286 285 285 285 285 285 285 285 284 284 284 284 284 284 284 284 284 284 284 284 284 284 285 285 285 285 285 285 285 285 285 285 285 284 284 284 284 284 284 284 284 284 285 285 285
282 283 282 281 281 280 279 279 279 280 279 278 278 277 277 277 278 279 280 281 282 283 283 283 284 284 284 284 284 284 284 284 285 285 285 285 285 285 285 285 285 285 285 285 285 285 285 285 285 285 284 284 284 284 284 284 284 284 284 284 284 284 284 284 284 284 284 284 285 285 285 285 284 284 284 284 283 283 284 284 284 283 283 283 283
281 282 281 280 280 279 278 277 277 278 277 277 276 275 275 276 277 277 278 279 280 281 282 282 282 282 283 283 283 283 283 283 283 284 284 284 284 284 284 285 285 285 285 285 285 285 284 284 284 284 284 284 284 284 284 284 284 284 284 284 284 284 284 284 284 284 284 283 283 284 284 284 284 284 283 283 283 283 283 283 283 282 282 282 282
281 281 281 280 279 279 277 276 276 276 276 275 275 274 274 275 276 276 277 278 279 279 280 280 281 281 281 282 282 282 282 282 283 283 283 283 283 284 284 284 284 284 284 284 284 284 284 284 284 284 284 284 284 284 284 284 283 283 283 283 283 283 283 283 283 283 283 283 283 283 283 283 283 283 283 283 283 282 282 282 282 282 282 282 282
280 281 280 279 279 277 276 275 275 276 275 274 273 273 274 274 275 276 276 277 277 278 278 279 279 280 280 281 281 282 282 282 282 282 282 282 282 282 282 283 283 283 283 283 284 284 284 284 284 284 284 284 283 283 283 283 283 283 283 283 283 283 283 283 283 282 282 282 282 282 282 282 282 282 282 282 282 282 281 281 281 281 281 281 281
280 280 280 278 277 276 274 274 274 274 274 273 273 273 274 274 275 275 276 276 277 277 277 278 279 280 280 281 281 281 282 282 282 282 281 281 281 281 281 281 281 282 282 282 283 283 283 283 283 283 283 283 283 283 283 283 283 282 282 282 282 282 282 282 282 282 282 281 281 281 281 281 281 281 281 281 281 280 280 280 280 280 280 280 280
280 280 279 277 276 274 273 273 273 273 273 272 273 273 274 274 275 275 276 276 276 277 277 278 279 280 280 281 280 281 281 281 280 280 280 279 279 279 280 280 280 281 281 282 282 282 282 282 282 282 282 282 282 282 282 282 282 282 282 282 282 281 281 281 281 281 281 281 281 281 280 280 280 280 280 280 280 280 280 279 279 279 279 279 279
280 279 277 276 275 274 273 272 272 273 272 273 273 273 274 274 274 275 275 276 276 276 277 278 279 279 280 280 280 280 280 279 279 279 279 278 278 278 279 279 280 280 280 281 281 281 281 281 281 281 281 281 281 282 282 282 281 281 281 281 281 281 281 281 280 280 280 280 280 280 280 280 279 279 279 279 279 279 279 279 278 278 278 278 278
279 277 276 274 274 273 272 272 272 272 272 273 273 273 273 274 274 274 274 274 275 276 276 277 278 279 279 279 279 279 279 278 278 278 278 278 278 278 278 278 279 279 280 280 280 281 281 281 281 281 280 281 281 281 281 281 281 281 281 281 280 280 280 280 280 280 280 280 280 280 279 279 279 279 279 279 279 279 278 278 278 278 277 277 277
278 276 274 273 273 272 271 271 272 272 272 272 273 273 273 273 273 273 273 273 274 275 275 276 277 277 277 277 277 277 277 277 277 277 277 277 277 277 277 277 278 279 279 279 280 280 280 280 280 280 280 280 280 280 280 280 281 280 280 280 280 280 280 280 280 280 279 279 279 279 279 279 279 279 279 278 278 278 278 278 277 277 277 276 276
277 275 273 273 273 272 271 271 271 272 272 272 272 273 273 273 273 273 273 273 274 274 275 275 275 275 275 275 275 275 275 275 275 275 275 276 277 277 277 277 277 278 278 279 279 279 279 279 279 279 279 279 279 279 279 280 280 280 280 279 279 279 279 279 279 279 279 279 279 279 279 278 278 278 278 278 278 278 277 277 277 277 276 276 276
275 274 273 272 272 272 271 271 271 271 272 272 272 272 272 272 272 273 272 273 273 274 274 274 274 273 273 273 273 273 274 274 274 274 274 275 276 276 276 276 276 277 277 278 278 278 278 278 279 279 279 279 279 279 279 279 279 279 279 278 278 279 279 279 279 278 279 279 278 278 278 278 278 278 278 278 277 277 277 277 277 276 276 276 276
275 274 273 272 272 271 271 271 271 271 271 272 272 272 272 272 272 272 272 273 273 273 274 274 273 273 272 272 272 273 273 274 274 273 273 274 274 274 274 274 275 275 276 276 277 277 277 278 278 278 278 278 278 278 278 278 278 278 278 278 278 278 278 278 278 278 278 278 278 278 278 277 277 277 277 277 277 277 277 277 276 276 276 276 275
274 273 272 271 271 271 270 270 271 270 271 271 271 272 271 271 271 272 272 273 273 273 274 274 273 272 272 272 272 272 273 273 273 273 272 273 273 273 273 273 273 274 274 275 276 276 277 277 277 278 278 278 278 278 278 277 277 277 277 277 277 277 277 277 277 277 277 277 277 277 277 277 277 276 276 276 276 276 276 276 276 276 275 275 274
274 272 271 271 271 270 270 270 270 270 271 271 271 271 271 271 271 271 272 272 273 273 273 273 273 272 272 271 271 271 272 272 272 272 272 272 272 272 272 272 272 272 272 273 274 275 276 276 277 277 277 277 277 277 277 277 276 276 276 276 276 276 276 276 276 276 276 276 276 276 276 276 276 276 276 276 276 275 275 275 275 275 274 274 274
273 272 271 271 270 269 269 270 270 270 270 271 271 271 271 271 271 271 271 272 272 273 273 272 272 272 271 271 271 271 271 271 271 271 271 271 271 271 271 271 271 271 271 272 272 273 274 275 275 276 277 277 277 277 277 276 276 276 276 275 275 275 275 275 275 275 275 275 275 275 275 275 275 275 275 275 275 275 275 274 274 274 274 274 274
272 271 270 270 269 269 269 269 269 270 270 270 271 271 271 271 271 271 271 271 271 272 272 272 271 271 271 271 271 271 271 271 271 271 271 271 271 271 270 271 271 271 271 271 271 272 272 273 274 275 276 276 276 276 276 276 275 275 275 275 274 275 275 275 275 274 274 274 274 274 274 274 274 274 274 275 275 275 275 274 274 274 274 274 274
271 270 269 269 269 269 269 269 269 269 270 270 270 271 271 270 271 271 270 270 270 271 271 270 270 271 271 271 271 271 271 271 271 271 270 271 271 271 270 270 270 271 271 271 271 271 271 272 273 274 275 275 276 276 276 275 275 275 275 274 274 274 275 274 274 274 274 274 274 273 273 273 273 273 273 273 274 274 274 274 274 274 274 274 274
270 269 269 268 269 269 269 269 269 269 270 270 270 270 270 270 270 270 270 269 269 269 270 269 269 269 270 270 270 270 270 270 270 270 270 270 270 270 270 270 270 270 271 271 271 271 271 271 272 273 274 275 275 275 275 275 275 274 274 274 274 274 274 274 274 273 273 273 273 272 272 272 272 272 272 272 272 273 273 274 274 274 274 274 273
270 269 269 268 268 269 269 269 269 269 270 270 270 270 270 270 270 270 269 269 268 269 269 269 269 269 269 270 270 270 270 270 270 270 270 270 270 270 270 270 270 270 270 271 271 271 271 271 272 273 274 274 275 275 275 275 274 274 274 274 274 274 274 273 273 273 272 272 272 272 272 272 271 271 271 271 272 272 272 273 273 273 274 274 273
270 269 269 268 268 268 269 269 269 270 270 270 270 270 270 270 270 270 269 269 268 268 269 269 269 270 270 270 270 270 270 270 270 270 270 270 270 270 270 270 270 270 270 270 271 271 271 271 272 273 273 274 274 274 274 274 274 274 274 274 274 274 273 273 273 272 272 272 271 271 271 271 271 271 271 271 271 271 271 272 272 273 273 273 273
271 269 268 268 268 268 269 269 270 270 270 270 270 270 270 270 270 270 270 269 269 268 268 269 269 269 270 270 270 270 270 270 270 270 269 269 269 270 270 270 270 270 270 270 271 271 271 271 272 273 273 274 274 274 274 274 273 273 273 273 273 273 273 273 272 272 271 271 271 271 270 270 270 270 270 270 270 271 271 271 272 272 272 273 273
272 270 269 269 268 268 269 270 270 270 270 270 270 270 270 270 270 270 270 269 269 268 268 268 269 269 269 269 269 269 270 270 270 270 269 269 269 270 270 270 270 270 270 270 271 271 271 271 272 273 273 273 274 274 273 273 273 273 272 272 273 273 273 272 272 271 271 270 270 270 270 270 270 269 269 270 270 270 271 271 271 272 272 272 272
273 272 272 271 270 269 270 270 271 271 271 271 271 270 270 270 269 269 270 269 269 268 268 269 268 268 268 268 268 269 269 269 270 270 269 269 270 270 270 270 270 270 270 270 270 271 271 271 272 273 273 273 273 273 273 272 272 272 272 272 272 272 272 272 271 271 270 270 270 270 270 269 269 269 269 269 269 270 270 271 271 271 271 271 271
274 274 274 273 272 272 271 271 271 271 271 271 271 271 271 270 269 269 269 269 269 269 269 269 268 268 268 268 268 268 269 269 270 270 269 269 270 270 269 269 270 270 270 270 270 271 271 271 271 272 272 272 272 272 272 272 271 271 271 271 271 271 271 271 271 271 270 270 270 269 269 269 269 268 268 269 269 269 270 270 270 270 271 271 271
275 274 275 274 274 273 272 271 271 271 271 271 271 271 271 271 270 270 270 269 269 269 269 269 269 269 268 268 268 268 268 269 270 270 269 269 269 269 269 269 269 269 270 270 270 271 271 271 271 271 272 272 272 271 271 271 270 270 270 270 270 270 271 270 270 270 270 270 269 269 269 268 268 268 268 268 268 269 269 269 269 270 270 270 270
275 275 275 275 274 273 273 272 272 272 272 272 272 271 271 270 270 270 270 270 269 269 269 269 269 269 269 268 268 268 268 269 269 269 269 269 269 269 269 269 269 269 269 270 270 270 270 271 271 271 271 271 271 271 271 270 270 270 270 270 270 270 270 270 270 269 269 269 269 269 268 268 268 268 268 268 268 268 268 269 269 269 269 269 269
276 275 275 275 274 274 273 273 272 272 272 272 272 272 272 272 271 270 270 270 270 269 269 269 269 269 269 269 268 268 268 269 269 269 269 269 269 269 269 269 269 269 269 270 270 270 270 270 270 270 270 270 270 270 270 270 270 269 269 269 269 269 269 269 269 269 269 269 269 269 268 268 268 268 268 268 268 268 268 268 268 269 269 269 269
276 276 275 275 275 274 274 273 273 272 272 272 272 272 272 273 272 272 271 271 271 270 269 269 269 269 269 269 269 268 268 268 268 269 269 269 269 269 269 269 268 269 270 270 270 270 270 270 270 270 270 270 270 270 270 269 269 269 269 269 269 269 269 269 269 269 269 269 268 268 268 268 268 268 268 268 268 268 268 268 268 268 268 269 269
276 276 276 275 275 274 274 274 273 273 272 272 272 271 271 271 271 272 272 272 272 271 270 269 269 269 269 269 269 269 268 268 268 269 269 269 269 269 269 268 268 269 270 270 269 269 270 270 270 270 270 270 270 269 269 269 269 269 269 269 269 269 269 269 269 269 269 268 268 268 268 268 268 268 268 268 268 268 267 267 268 268 268 268 268
277 277 276 276 275 275 274 274 274 273 273 272 272 271 271 270 270 270 271 272 272 272 271 270 269 269 269 269 269 268 268 268 268 269 269 269 269 269 269 269 269 269 269 269 269 269 270 270 270 270 270 269 269 269 269 269 269 269 269 269 269 269 269 269 269 268 268 268 268 268 268 268 268 268 268 268 268 268 268 268 268 268 268 267 268
277 277 276 276 276 275 275 274 274 273 273 272 272 271 271 270 270 270 270 270 270 270 271 270 269 269 269 269 269 269 268 268 269 269 269 269 269 269 269 269 269 269 269 269 269 269 269 269 269 269 269 269 270 269 269 269 269 269 269 269 269 269 268 268 268 268 268 268 268 268 269 269 269 269 268 268 268 268 268 268 268 268 267 267 268
277 277 276 276 276 275 275 274 274 274 273 273 272 272 272 271 271 270 270 269 269 269 270 270 270 269 269 269 269 269 268 268 269 269 269 269 269 269 269 269 269 269 269 268 268 269 269 269 269 269 269 269 269 270 270 269 269 269 269 269 269 269 268 268 268 268 268 268 268 268 268 268 269 268 268 268 268 268 268 268 268 268 268 268 268
277 277 277 276 276 275 275 274 274 274 274 273 273 272 272 272 271 271 270 270 269 269 269 270 270 269 269 269 268 268 268 268 268 269 269 269 269 269 269 269 269 269 269 269 268 268 268 269 269 269 269 269 269 269 269 269 269 269 269 269 269 268 268 268 268 268 268 268 268 268 268 268 268 268 268 268 268 268 268 268 268 268 268 268 268
277 278 277 276 276 275 275 275 274 274 274 273 273 272 272 272 272 271 270 270 269 269 269 269 269 269 269 269 268 268 268 268 268 269 269 269 269 269 269 269 269 269 269 269 269 268 268 268 268 268 268 269 269 269 269 269 269 269 269 269 269 268 268 268 268 268 268 268 268 268 268 268 268 268 268 268 268 268 268 268 268 268 268 268 268
278 278 277 277 276 276 276 275 275 274 274 273 273 272 272 272 271 271 270 270 269 269 269 269 269 269 269 269 268 268 268 267 268 268 269 269 269 269 269 269 269 269 269 269 269 269 269 268 268 268 268 268 268 269 269 269 269 269 269 269 269 269 268 268 268 268 268 268 268 268 268 268 268 268 268 268 268 268 268 268 268 268 268 268 268
278 278 278 277 277 276 276 275 275 275 274 274 273 273 272 272 271 270 270 269 269 269 269 268 268 268 268 268 268 268 267 267 267 268 268 268 268 268 269 269 269 269 269 269 269 269 269 269 269 268 268 268 268 268 268 268 268 269 268 268 268 268 269 268 268 268 268 268 268 268 268 268 268 268 268 268 268 268 268 268 268 268 268 268 268
278 278 278 278 277 277 276 276 275 275 274 274 274 273 272 272 271 271 270 269 269 269 269 268 269 268 268 268 268 267 266 266 267 268 267 267 267 268 268 269 269 269 269 269 269 269 269 269 269 269 268 268 268 268 268 268 268 268 268 268 268 268 268 268 269 269 269 269 269 269 269 269 268 268 268 268 268 268 269 269 269 268 268 268 268
278 278 278 278 277 277 276 276 276 275 274 274 274 273 273 272 271 271 270 270 270 269 269 269 269 269 268 268 267 267 267 267 267 268 268 267 268 268 268 268 269 268 269 269 269 269 269 269 269 269 269 269 268 268 268 268 268 268 268 268 268 268 268 268 269 269 269 269 269 269 269 269 269 268 268 268 268 268 268 268 268 268 267 267 267
278 279 278 278 277 277 277 276 276 275 274 274 274 273 273 272 272 271 271 270 270 270 269 269 270 269 268 268 267 267 267 267 267 267 267 267 268 268 268 268 268 268 269 269 269 269 269 269 269 269 269 269 269 268 268 268 268 268 268 268 268 269 269 269 269 269 269 269 269 269 269 269 269 269 269 268 268 268 268 268 268 267 267 267 266
279 279 278 278 277 277 277 276 275 275 274 274 274 273 273 272 272 271 271 271 270 270 270 270 270 269 268 268 267 267 267 267 267 267 267 267 267 267 267 267 268 268 268 269 269 269 268 269 269 269 269 269 269 269 269 268 268 268 269 269 269 269 269 269 269 269 269 269 269 269 269 269 269 269 269 268 268 268 268 268 268 267 267 266 266
279 278 278 278 278 277 277 277 276 275 275 274 274 274 273 273 272 272 271 271 271 270 270 270 270 269 269 268 267 267 266 266 266 266 266 266 266 266 266 267 267 268 268 268 269 269 269 269 269 269 269 269 269 269 269 269 268 269 269 269 269 269 269 269 269 269 269 269 269 269 269 269 269 269 269 269 268 268 268 268 268 267 267 266 265
279 279 278 278 278 278 277 277 276 276 275 274 274 274 274 273 273 272 272 272 271 271 271 270 270 269 269 269 268 267 266 266 265 265 265 265 265 265 266 266 267 267 268 268 268 269 269 269 269 269 269 269 269 269 269 269 268 268 268 269 269 269 269 269 269 269 269 269 268 268 268 268 268 268 269 269 268 268 268 268 268 267 267 266 266
279 279 278 278 278 278 278 277 276 275 275 274 274 274 274 274 273 273 273 272 272 271 271 271 270 269 269 269 268 268 267 266 265 265 265 265 265 265 266 267 267 267 267 268 268 268 268 268 268 269 269 269 269 269 269 269 268 268 268 268 268 269 269 269 269 269 269 269 269 268 268 268 268 268 268 268 268 268 268 268 268 267 267 266 266
279 279 278 278 278 278 278 277 276 276 275 275 274 274 274 274 274 273 273 273 272 271 271 271 270 270 269 269 268 268 268 267 267 266 266 266 265 265 266 266 266 266 267 267 268 268 268 268 268 268 268 268 268 269 269 269 269 268 268 268 268 268 269 269 269 269 269 269 269 269 268 268 268 268 268 268 267 267 267 267 267 267 266 266 265
279 279 278 278 278 277 278 277 277 276 276 276 275 275 275 274 274 274 274 273 272 272 272 271 271 270 269 269 269 268 268 268 267 267 267 267 266 266 266 266 266 266 267 267 267 268 268 268 268 268 268 268 268 268 268 268 268 268 269 269 268 268 268 268 268 269 269 268 268 268 268 268 268 268 268 267 267 267 266 266 266 266 266 266 265
279 279 279 278 278 278 278 278 277 277 276 276 275 275 275 275 275 275 274 273 273 273 272 272 271 270 270 269 269 268 268 268 268 268 268 267 267 267 266 266 266 266 267 267 267 267 267 267 267 267 267 268 268 268 268 268 268 268 268 268 269 268 268 268 268 268 268 268 268 268 267 267 268 268 268 268 267 266 266 266 266 266 265 265 265
279 279 279 278 278 278 278 278 277 277 277 276 276 276 275 275 275 275 274 274 274 273 273 272 272 271 270 270 269 269 268 268 268 268 268 268 268 267 267 267 266 266 266 266 266 266 266 266 266 267 267 267 267 267 267 267 268 268 268 268 268 268 268 268 268 268 268 268 268 268 267 267 267 267 268 268 267 267 266 266 266 265 265 265 265
279 279 279 279 278 278 278 277 277 277 277 277 276 276 276 276 275 275 275 274 274 274 273 273 272 272 271 271 270 269 269 268 268 268 268 268 268 267 267 267 266 266 266 266 266 265 265 265 265 265 266 266 267 267 267 267 267 267 267 267 268 268 268 268 268 268 268 267 267 267 267 267 267 267 267 267 267 267 266 266 266 265 265 265 264
Wind_Speed
20 19 16 14 14 15 16 18 18 18 18 17 17 16 14 13 12 11 11 11 11 11 11 11 9 8 8 8 8 8 8 9 10 11 13 14 15 15 16 18 20 22 23 24 25 25 27 28 28 27 26 26 27 27 28 28 29 29 29 29 29 29 28 25 18 16 21 25 26 27 26 24 24 23 23 22 22 22 22 22 22 21 21 21 22
19 17 14 14 16 18 19 19 18 17 16 16 16 17 16 15 13 11 10 10 10 9 9 10 10 10 9 7 7 8 8 9 9 10 12 14 15 16 16 17 20 21 21 22 23 24 25 27 27 27 27 27 28 27 27 27 27 29 29 29 30 30 29 28 24 19 19 22 25 27 26 24 25 25 24 24 23 23 23 23 22 22 24 24 25
17 14 13 16 18 19 20 20 17 15 15 16 18 19 18 16 13 11 11 10 9 9 8 8 9 9 9 8 7 7 7 8 9 9 11 13 14 15 16 18 19 20 21 22 22 23 24 25 26 25 25 26 27 27 27 27 27 28 29 30 30 29 28 29 28 24 22 22 23 23 23 23 25 25 23 23 23 22 23 24 24 25 26 27 27
17 14 14 19 18 17 21 20 16 15 17 18 20 19 17 15 14 12 12 11 10 9 9 8 8 8 9 9 9 8 8 8 8 9 10 12 13 14 16 17 19 20 21 21 22 22 23 24 24 23 23 25 26 26 26 27 28 29 29 29 30 30 29 30 31 30 26 23 20 21 23 24 25 25 23 23 23 24 25 26 26 27 28 28 28
17 13 14 19 17 16 22 22 17 16 18 19 20 19 16 15 15 14 13 12 11 10 10 9 9 10 10 11 11 11 11 10 9 9 10 10 12 13 14 16 18 19 21 21 22 22 23 23 23 22 23 24 25 25 26 27 28 29 29 29 29 29 29 30 32 31 29 25 21 20 21 23 24 25 24 24 24 25 26 27 27 27 28 28 29
18 14 15 18 15 17 24 22 17 16 17 19 20 19 17 16 16 16 15 13 11 10 10 10 11 12 12 13 14 14 12 11 10 10 10 10 11 12 14 15 17 18 20 21 22 22 23 24 24 23 24 25 26 26 26 26 27 28 29 28 27 27 27 28 29 29 29 28 24 22 21 22 23 24 25 25 25 25 25 26 27 28 28 29 30
19 14 15 17 15 19 23 20 17 16 16 18 19 18 18 17 16 17 16 14 12 12 11 12 12 12 13 13 13 13 11 10 9 10 10 11 11 12 13 14 16 17 19 20 21 22 24 24 25 25 25 26 27 26 26 26 26 27 28 27 27 26 26 26 26 26 27 26 24 22 22 22 23 24 24 24 24 25 25 24 25 26 27 28 29
18 14 15 15 15 21 21 16 15 16 17 18 18 17 17 17 16 16 15 14 13 12 12 12 11 10 10 10 10 10 9 8 8 9 10 11 12 13 14 15 17 18 19 20 21 23 24 25 26 27 27 27 27 27 26 26 26 26 26 26 26 26 25 25 24 24 24 23 22 21 21 21 21 21 21 21 22 23 24 24 23 24 24 25 26
16 14 16 15 17 19 16 13 13 14 17 19 17 17 17 16 16 15 14 14 13 12 12 12 11 10 10 11 11 10 9 8 8 10 12 13 14 15 16 17 18 19 21 22 22 23 24 25 26 27 27 27 27 27 28 27 27 26 25 24 25 25 25 24 23 22 21 21 20 19 18 18 18 18 19 21 22 22 21 20 22 23 24 24 24
13 15 18 17 16 15 13 13 13 13 17 18 17 18 18 17 17 16 14 14 14 13 13 12 12 12 11 12 12 10 9 9 10 12 14 15 16 16 17 18 18 19 21 22 24 24 24 25 25 25 26 26 26 27 28 28 28 28 26 25 25 24 24 23 22 21 20 19 18 17 16 16 17 19 20 21 22 22 20 19 20 20 20 20 21
13 17 20 17 14 13 14 14 12 13 16 17 17 18 17 16 17 16 16 15 15 14 14 13 13 13 12 12 12 10 10 12 14 15 16 17 17 16 16 17 18 19 20 21 23 24 24 24 24 24 24 24 25 25 26 27 28 29 29 28 27 26 25 23 22 22 21 20 19 18 17 16 18 20 20 20 20 20 21 20 19 18 15 13 13
15 18 19 15 12 14 16 15 13 14 15 17 18 18 16 15 16 17 17 16 15 15 15 14 14 14 13 12 12 12 13 14 15 16 17 16 16 15 16 16 17 18 19 20 21 22 22 23 23 23 24 24 24 23 23 24 25 27 28 29 29 29 28 27 25 24 23 21 20 20 19 18 18 19 19 19 19 20 20 20 19 18 16 14 13
17 16 16 14 12 15 18 16 16 16 16 17 18 17 16 15 16 17 17 15 14 14 15 15 15 15 15 14 14 14 14 15 14 14 15 15 15 15 15 16 17 18 18 18 18 19 20 21 21 22 22 22 22 22 22 23 23 24 26 27 28 29 30 31 30 28 27 24 22 22 21 20 20 20 20 19 19 19 19 19 19 19 18 17 17
17 14 15 15 13 15 17 17 17 16 16 17 18 17 17 16 16 17 17 15 14 14 15 15 16 18 18 16 15 14 14 14 14 14 15 15 15 15 15 16 17 17 18 18 18 18 18 19 20 21 20 20 20 20 21 21 22 23 24 25 26 27 29 30 31 32 31 29 27 25 23 22 21 21 19 19 19 19 19 19 19 19 19 20 20
15 14 17 17 14 15 17 17 17 16 16 17 17 16 16 16 17 17 17 15 13 13 13 14 17 20 20 18 16 14 13 13 13 14 16 17 17 17 16 16 17 17 17 17 17 18 18 17 18 19 19 19 19 19 19 19 20 21 23 23 24 25 27 28 29 31 32 32 32 29 26 24 23 22 20 19 19 19 19 19 18 17 18 18 18
13 15 18 17 15 16 17 17 16 16 17 17 17 17 16 16 17 17 16 14 12 12 12 13 17 20 20 19 17 15 14 14 15 16 17 17 18 18 19 19 18 17 17 16 16 17 16 16 17 17 17 18 17 17 18 18 18 20 21 23 23 23 25 25 26 27 29 30 30 30 28 26 25 24 23 22 21 20 17 17 17 16 16 15 14
13 18 19 15 15 17 16 16 17 17 17 17 17 17 16 16 16 16 16 15 13 13 12 12 16 19 19 18 18 17 17 17 17 17 17 16 17 18 20 20 19 18 17 16 16 16 16 16 16 16 17 16 15 15 16 17 17 19 20 21 22 22 23 24 23 24 24 25 26 26 25 25 24 23 22 22 22 21 19 19 18 17 16 11 10
15 20 18 14 14 15 14 15 17 17 17 17 17 16 16 16 16 15 15 15 14 13 12 12 15 17 17 16 17 18 18 19 20 19 17 16 17 18 19 20 20 19 19 19 18 17 17 16 15 16 17 16 14 14 14 15 17 18 19 20 20 21 22 21 21 20 20 21 22 22 22 22 22 22 21 20 20 20 21 22 20 18 17 13 10
17 19 16 13 13 13 13 14 15 15 17 17 16 16 15 15 16 15 14 14 13 11 11 13 15 15 14 14 15 17 19 19 20 20 19 18 18 18 19 20 20 20 20 21 22 21 19 17 15 15 16 16 15 14 14 14 16 17 17 18 19 20 20 19 18 19 19 18 19 19 20 21 21 22 22 22 21 20 21 22 21 20 18 16 14
17 16 13 12 11 11 12 14 13 13 15 16 15 14 14 15 16 15 15 15 13 12 12 14 16 15 14 14 15 17 18 19 19 19 20 20 19 19 19 20 20 20 20 20 21 22 22 20 17 15 15 16 16 15 14 14 15 16 17 18 18 18 18 16 16 17 17 17 17 17 17 18 18 19 20 21 22 23 23 22 22 22 21 18 16
16 13 13 12 10 10 12 12 13 13 14 15 14 13 13 15 16 16 17 16 15 14 14 15 16 16 16 16 16 17 18 19 19 19 19 19 19 19 19 20 20 20 20 19 20 21 22 22 21 17 15 15 15 15 14 13 13 14 16 17 17 17 16 15 14 14 14 15 15 15 15 15 16 17 17 19 21 23 24 24 24 24 23 21 18
14 12 13 12 10 10 11 10 11 12 13 14 14 13 13 14 15 16 17 17 16 16 16 17 17 17 17 16 17 17 18 19 19 20 19 19 19 19 19 19 19 20 21 21 20 21 21 22 22 18 15 15 15 13 13 13 12 13 14 15 15 15 16 15 13 11 12 12 12 13 13 14 15 16 17 18 19 20 22 23 24 25 24 23 21
13 11 12 12 10 10 10 9 9 11 13 14 14 13 13 14 15 17 18 18 18 17 17 18 17 17 17 16 16 17 18 19 19 20 21 20 19 19 19 20 19 19 20 20 20 20 21 22 21 18 14 14 14 12 12 11 11 11 12 13 13 13 14 14 12 11 11 11 12 12 13 14 15 16 16 17 17 17 18 19 21 23 22 22 22
12 10 11 11 10 9 8 8 8 10 12 13 13 13 13 14 15 16 17 18 18 17 18 18 17 17 17 17 17 17 18 19 19 19 20 21 20 20 19 20 20 19 19 19 20 20 21 21 20 17 15 14 13 11 11 11 11 10 10 10 11 13 13 13 12 12 11 12 12 13 13 14 14 15 15 15 15 15 15 16 18 19 20 20 20
12 11 11 11 10 9 7 7 8 10 11 12 13 14 13 14 15 16 17 18 18 17 17 17 17 17 17 18 19 19 19 19 19 19 20 21 21 21 21 21 22 21 20 19 19 19 19 19 17 14 13 12 11 10 10 10 10 9 9 9 10 12 13 13 13 12 12 12 12 13 13 13 13 13 13 12 12 13 14 15 16 17 18 18 17
12 12 11 10 10 9 7 7 9 9 10 11 12 12 12 13 14 15 16 17 17 17 17 17 17 17 17 19 20 20 20 20 19 20 22 22 21 21 21 22 22 22 21 20 19 19 19 17 14 13 12 10 9 8 9 10 10 10 9 8 9 10 12 13 13 13 12 12 12 12 12 12 11 11 11 10 10 11 13 15 16 16 16 15 14
12 12 11 10 10 9 8 9 10 10 10 11 12 12 12 12 13 14 15 16 17 17 17 18 18 18 19 21 21 21 20 20 20 21 23 24 23 22 22 22 22 22 21 21 20 20 18 16 13 12 11 9 8 9 9 10 11 10 9 8 8 9 11 12 12 12 12 12 11 11 11 10 9 9 10 10 10 11 12 13 14 15 14 13 13
10 11 10 10 9 9 8 9 10 10 10 11 12 13 13 12 12 12 12 13 15 17 18 19 19 19 20 22 22 21 19 19 20 22 24 24 24 23 22 23 23 22 22 21 20 18 17 14 13 12 11 9 9 10 10 11 11 10 9 7 7 8 9 10 10 11 10 10 10 9 9 9 8 8 9 10 11 12 11 11 12 12 11 11 10
9 9 9 8 8 8 7 7 8 10 10 10 11 11 11 11 10 9 8 8 11 13 15 17 18 19 20 21 21 21 20 20 20 21 22 22 22 21 21 21 22 22 21 19 17 15 15 14 13 12 12 11 11 12 12 12 11 10 9 8 7 8 9 9 9 9 9 9 9 9 9 8 8 8 9 10 11 12 12 12 13 13 12 12 12
8 8 8 8 7 7 7 7 8 9 10 11 12 12 11 10 9 8 8 8 8 8 10 12 15 17 19 19 18 17 18 19 20 20 20 20 20 19 18 19 21 21 19 17 14 12 13 14 14 13 12 12 12 12 13 12 11 11 10 8 8 8 8 9 9 9 9 9 9 9 9 9 9 9 9 10 10 10 11 12 13 13 13 13 13
9 8 8 8 7 7 7 8 8 8 9 10 12 14 15 14 12 9 10 10 9 7 7 9 11 13 16 17 16 15 15 17 18 19 20 20 19 17 17 19 19 19 17 14 11 11 12 13 14 13 13 12 12 12 12 12 11 11 10 9 9 8 9 9 9 9 9 9 9 9 10 10 10 9 9 10 10 10 10 11 11 12 12 12 12
10 9 8 8 7 7 7 8 8 9 9 9 11 13 16 17 16 15 14 13 10 8 9 10 10 12 14 15 16 16 16 16 17 18 19 19 18 16 17 18 18 16 14 12 10 11 13 13 13 14 13 13 13 13 12 12 11 11 10 10 9 9 9 9 10 9 9 9 9 10 10 10 9 9 8 8 8 8 9 10 11 11 11 11 11
11 10 9 8 8 7 8 8 8 9 9 10 10 11 12 15 17 19 19 16 12 10 11 12 11 11 13 14 15 17 17 15 15 18 18 17 16 16 16 17 16 14 12 11 11 12 12 13 14 14 13 13 13 12 12 12 11 11 10 10 10 10 10 10 9 9 10 9 9 10 9 8 7 7 6 6 6 7 8 9 10 10 10 11 11
11 10 10 9 9 8 8 8 8 9 9 9 9 10 10 11 13 17 19 19 17 15 15 15 13 12 13 13 14 16 17 14 15 17 17 16 15 15 15 16 15 13 12 12 11 12 12 13 14 14 14 14 13 12 12 11 11 11 10 9 9 9 9 9 9 9 9 9 9 9 9 8 7 6 5 5 5 6 7 8 9 10 11 11 11
11 11 10 10 10 9 9 9 9 9 9 9 9 10 10 11 12 13 15 17 19 20 21 19 17 14 13 13 14 16 16 14 15 16 16 14 14 14 14 15 16 15 14 13 12 12 12 12 13 13 14 14 13 11 10 10 10 10 10 9 8 8 8 8 8 8 8 8 9 9 9 8 7 6 6 6 6 7 8 9 9 10 10 10 10
12 11 10 10 10 10 9 9 9 9 9 9 9 10 10 11 12 12 12 13 16 19 21 22 20 17 14 13 14 16 15 14 14 15 15 13 13 14 15 15 16 16 15 15 14 13 12 12 12 12 13 14 13 11 9 9 8 8 9 9 8 7 7 7 7 7 8 8 8 9 9 9 8 7 7 8 9 9 9 10 10 10 11 11 11
13 12 10 10 10 10 10 9 9 9 9 9 9 10 10 11 11 11 12 13 14 16 19 20 21 21 19 16 15 16 16 15 13 13 12 11 12 13 13 14 15 15 15 15 15 14 14 13 12 11 12 13 12 11 9 9 9 8 8 8 8 8 7 6 6 6 7 7 8 9 9 9 9 9 9 10 11 11 11 11 11 12 12 12 12
13 12 11 10 11 11 10 10 10 9 9 9 9 10 10 11 11 11 12 12 13 15 16 18 19 20 21 19 18 18 18 17 16 15 14 13 13 13 14 14 14 14 15 15 14 15 15 14 13 12 12 12 11 11 10 10 9 8 8 8 8 8 8 7 6 6 7 7 8 8 9 10 10 9 10 11 12 12 12 13 13 13 14 14 14
13 12 11 11 11 11 11 11 10 10 10 10 9 9 10 11 11 11 11 12 13 14 15 16 16 17 17 18 18 18 19 18 19 19 18 16 15 15 15 15 14 14 14 14 14 15 15 15 14 13 12 12 12 11 11 10 10 10 10 9 9 9 9 9 8 7 7 7 8 8 9 10 11 11 11 12 13 13 13 13 13 14 15 15 17
14 13 12 12 12 12 12 12 11 11 11 10 10 9 10 10 11 11 11 12 13 14 14 15 15 15 14 15 16 17 17 18 18 18 18 18 17 16 15 15 15 15 15 15 14 14 15 15 15 14 13 12 12 11 11 11 11 11 11 11 10 10 10 10 11 10 9 9 9 9 9 9 10 11 12 13 12 12 13 14 15 15 16 17 18
14 14 13 12 12 12 13 13 12 12 11 11 11 10 10 10 11 11 11 12 13 14 15 15 15 14 13 13 13 13 15 16 16 16 16 16 16 16 15 15 15 15 15 15 14 14 15 15 15 15 14 13 12 12 11 11 11 11 11 11 11 11 11 11 12 12 11 10 9 9 9 8 9 10 12 12 12 12 13 14 15 16 17 17 18
16 15 14 13 12 13 13 13 12 12 12 12 11 11 11 11 11 11 12 13 13 14 16 16 15 14 12 12 12 12 13 14 15 15 15 15 15 15 15 15 15 15 14 14 14 14 14 14 15 14 14 14 13 12 12 11 11 11 11 11 12 12 12 12 12 12 11 11 11 10 10 10 10 10 11 11 12 12 13 14 15 16 17 18 18
17 16 15 14 14 13 13 13 12 13 13 13 12 12 12 12 12 12 13 13 13 14 15 16 16 15 14 12 12 12 13 13 14 14 15 15 15 16 16 16 15 14 14 14 13 13 14 14 14 14 14 13 13 12 12 12 11 11 11 12 12 12 13 13 12 12 12 12 11 11 11 11 11 11 11 12 13 13 14 15 16 16 17 17 17
18 18 17 16 15 14 14 13 13 13 13 13 13 13 13 13 13 13 13 14 14 14 14 15 16 16 15 14 13 13 13 14 14 15 15 15 15 16 17 16 15 14 14 13 13 13 13 14 14 14 14 14 13 12 12 12 12 13 13 13 13 14 13 13 12 11 11 12 12 12 12 12 12 13 13 13 14 14 15 16 16 16 16 17 17
20 19 19 17 16 15 15 14 14 14 14 14 14 14 14 13 14 14 13 14 14 14 14 14 14 15 16 15 14 14 14 14 15 16 16 15 16 16 16 16 15 15 14 14 13 12 13 13 14 15 15 14 14 13 12 12 12 13 14 14 15 15 14 14 13 13 13 13 13 13 14 14 14 15 15 15 15 16 17 17 16 16 16 17 17
21 21 20 19 17 16 15 14 14 14 15 15 16 15 15 14 14 14 14 14 14 14 15 14 14 14 15 15 15 14 14 14 15 16 16 16 16 17 16 16 15 15 15 15 14 13 12 13 14 14 15 15 15 15 14 14 13 13 14 14 15 15 15 14 14 15 15 15 16 16 16 16 16 16 16 16 16 17 18 17 17 17 17 17 17
22 22 21 20 19 17 16 15 15 15 16 16 16 17 16 15 15 14 14 15 14 15 15 15 15 15 15 14 14 14 14 14 15 15 15 16 16 17 17 17 16 17 17 16 15 14 13 13 13 14 15 15 16 16 16 16 16 15 15 15 15 16 16 15 15 16 16 16 17 17 18 18 18 17 17 17 17 18 18 18 18 17 17 17 18
23 23 22 22 21 19 18 17 16 17 17 17 17 17 16 16 15 15 15 15 15 15 15 15 15 15 15 15 14 14 14 14 15 15 14 15 15 15 16 16 17 18 18 17 16 15 15 15 15 15 15 15 16 16 17 18 17 17 17 17 16 16 16 16 16 16 16 16 17 18 18 19 19 18 17 17 17 18 18 18 18 18 17 17 18
23 23 23 23 23 21 20 19 18 18 18 17 17 17 17 16 16 16 15 15 15 15 15 16 16 16 16 16 15 15 15 15 16 16 15 16 15 15 16 16 17 18 18 17 16 15 15 16 16 16 16 17 17 17 17 18 18 19 19 18 17 17 17 17 17 17 16 17 17 17 18 19 20 19 19 18 17 18 18 18 19 19 18 18 19
24 24 24 25 24 23 22 20 19 19 18 18 18 18 17 17 17 16 15 16 16 16 15 16 16 16 16 16 16 16 16 16 16 17 17 17 17 17 17 17 18 18 17 16 16 16 17 18 18 17 17 17 17 18 18 18 18 18 19 18 18 18 18 18 18 18 17 17 18 18 18 19 20 20 20 20 19 19 20 20 20 20 20 20 21
26 25 25 25 25 24 23 22 21 21 20 19 19 19 18 18 18 17 16 16 17 16 16 16 16 16 16 16 16 16 17 17 17 18 18 18 18 18 18 18 18 17 17 17 16 17 18 19 20 20 19 18 18 18 18 18 18 18 18 18 18 18 18 18 19 19 18 18 18 19 19 20 20 21 21 21 21 21 22 21 21 21 21 21 21
Wind_Direction
13 15 22 30 26 20 15 10 3 359 358 354 354 1 6 6 3 1 5 9 9 10 11 8 358 342 323 311 304 298 294 292 287 283 279 275 272 269 268 265 262 260 260 258 255 253 252 251 251 251 250 250 249 249 248 246 245 244 242 240 239 237 235 236 245 259 257 255 259 263 264 264 262 260 258 258 256 256 255 254 253 255 258 259 259
8 11 19 18 11 7 3 0 358 359 3 1 356 355 356 356 355 353 358 4 4 4 4 3 0 355 346 334 318 306 297 292 290 288 285 282 278 275 272 269 266 263 262 261 260 259 256 254 254 253 251 250 249 249 248 247 246 244 241 237 237 236 234 234 240 254 259 255 258 263 264 260 257 257 258 258 257 255 254 254 254 256 258 258 257
8 12 17 10 3 359 353 351 358 3 1 357 351 347 345 346 346 344 345 347 349 355 358 357 354 349 347 344 336 326 313 300 292 289 288 288 285 282 279 274 271 268 265 263 264 262 259 256 255 254 253 251 250 248 247 246 244 243 241 238 237 238 235 233 238 248 258 259 256 256 255 254 255 256 256 256 254 253 254 256 257 258 257 257 257
9 9 9 4 1 359 354 354 3 1 353 349 346 345 347 349 349 343 337 333 332 335 339 343 344 338 335 333 331 331 325 317 307 297 292 291 289 287 285 281 277 273 270 269 267 265 262 259 258 258 256 253 252 249 246 244 243 242 242 240 239 240 238 236 239 245 254 259 254 248 249 251 254 256 255 255 255 256 258 259 259 259 258 258 258
6 1 0 0 0 0 356 356 0 357 353 351 350 354 0 2 360 353 344 336 332 328 327 329 329 327 326 323 321 321 321 318 314 309 303 296 290 286 284 282 279 276 274 272 271 268 265 263 262 261 258 255 253 251 248 247 245 244 244 243 242 242 241 240 241 243 248 254 253 249 249 250 252 254 254 255 257 258 258 258 259 259 259 259 259
360 355 360 3 0 357 355 357 2 2 358 354 355 3 6 7 8 4 358 355 349 343 338 333 329 325 322 319 316 316 316 315 316 315 310 301 293 286 282 280 279 278 277 275 274 272 269 268 266 263 259 255 253 252 250 249 248 246 246 245 245 244 243 241 240 241 244 249 253 252 249 248 249 252 253 254 256 257 258 260 259 258 258 259 260
357 353 359 4 1 355 356 360 5 4 358 355 1 8 8 8 11 8 6 8 2 356 350 341 336 332 326 324 322 319 316 316 320 320 314 309 304 298 292 288 285 281 279 276 275 273 271 270 268 265 260 257 255 254 252 250 249 248 247 247 246 244 243 242 241 241 244 248 252 251 250 249 249 251 254 255 256 256 256 257 259 259 259 259 259
359 358 3 8 3 356 355 359 3 0 357 1 8 10 8 10 10 8 9 11 7 2 356 350 349 348 346 346 345 340 333 331 335 331 321 317 315 311 307 302 297 292 287 283 279 276 273 271 268 266 264 261 259 257 256 253 252 251 249 247 245 243 242 242 241 241 243 247 250 250 251 250 248 249 251 250 250 252 251 251 254 258 260 260 260
358 3 6 7 1 358 360 1 1 359 359 6 10 7 7 8 7 8 10 9 9 6 2 2 4 8 14 12 6 3 360 354 349 339 328 325 321 317 312 307 302 298 294 291 287 283 281 278 275 273 270 268 266 264 261 258 255 253 251 248 245 242 241 240 240 240 242 245 249 248 248 247 243 241 241 240 241 247 251 251 252 256 259 262 262
359 3 2 0 358 1 4 0 358 359 3 7 7 4 5 5 6 9 9 9 10 7 4 7 8 10 17 14 6 3 359 348 337 329 327 325 321 316 311 305 302 299 295 293 291 289 288 286 284 282 279 276 272 269 267 264 260 257 254 251 247 243 240 239 238 238 239 242 244 243 243 243 239 237 239 242 245 248 250 249 251 256 259 263 266
1 358 357 358 360 2 2 1 360 0 2 5 5 4 5 6 9 10 9 7 9 8 7 8 9 11 13 10 2 352 343 335 329 324 321 319 317 312 307 303 300 298 296 293 291 291 291 290 290 288 286 282 278 275 272 269 266 263 259 255 251 247 243 240 239 238 238 240 242 240 239 241 241 239 240 244 247 248 249 247 248 252 253 256 266
358 356 357 0 0 358 360 2 2 0 1 3 4 6 8 10 12 10 5 4 6 9 12 11 12 14 9 1 353 342 334 331 327 322 319 319 319 315 307 302 298 296 295 293 292 291 291 291 291 290 288 287 284 281 277 273 270 267 264 260 255 252 248 245 243 241 239 240 241 239 237 240 242 240 238 239 242 245 248 247 245 245 246 248 253
357 357 359 1 357 354 358 2 1 0 2 3 4 8 11 11 12 7 2 2 5 9 12 11 9 4 356 349 342 335 333 333 331 329 329 330 328 323 314 306 299 295 294 294 294 292 291 292 290 289 289 288 286 283 280 277 274 270 267 264 259 256 252 249 248 246 244 243 243 242 240 240 241 240 239 239 239 240 241 242 242 241 242 246 250
357 358 357 358 354 351 355 0 1 0 2 2 4 9 9 9 8 2 358 2 6 7 9 9 5 359 353 348 341 335 335 337 336 339 342 340 336 330 322 313 307 301 297 296 295 293 293 293 291 290 289 288 285 283 281 278 276 273 269 265 261 258 255 252 249 247 246 245 245 246 245 243 243 244 244 242 239 237 236 239 242 243 245 251 255
356 356 353 355 352 348 352 358 360 0 0 0 4 7 6 6 3 357 357 2 4 3 5 4 0 358 357 353 347 343 343 342 341 344 344 343 341 335 327 322 318 313 308 305 302 299 298 297 295 294 293 290 288 284 281 277 274 272 268 264 262 259 256 254 251 249 247 245 245 248 248 247 248 248 247 246 243 243 243 245 249 252 255 256 257
356 353 351 353 350 346 351 355 356 358 357 358 2 5 4 3 0 356 357 1 3 3 3 0 357 356 358 1 358 354 351 345 339 337 337 338 339 336 333 332 329 325 321 318 314 310 307 304 301 298 296 294 293 289 284 277 270 266 265 263 262 260 258 258 257 254 251 249 248 249 249 250 251 251 251 250 248 248 246 244 245 246 247 249 249
353 349 349 351 346 345 350 352 352 354 355 356 0 3 3 2 1 358 357 359 4 5 2 359 354 352 356 5 5 0 359 357 351 343 337 337 340 340 338 337 335 332 329 324 320 315 312 309 307 302 298 296 295 293 287 278 269 263 261 260 259 258 258 260 260 257 255 253 252 251 251 251 251 252 252 251 251 248 239 233 232 230 229 233 240
346 346 347 345 342 345 350 350 348 350 353 355 358 360 1 2 2 1 359 358 0 3 1 355 349 348 356 5 6 2 0 4 3 357 348 343 342 343 341 338 335 334 331 328 325 321 316 313 311 306 302 299 297 294 288 278 270 263 260 257 255 255 256 258 259 258 257 255 254 253 251 249 248 247 245 243 245 243 234 230 229 226 222 225 232
341 341 342 340 342 348 350 349 348 349 351 354 356 357 359 1 1 1 360 356 355 358 360 351 343 346 357 4 7 5 1 2 4 1 356 352 348 345 344 340 335 331 330 329 328 326 324 321 317 312 308 305 301 297 291 282 273 266 262 256 251 253 257 259 258 258 257 255 255 254 253 251 249 247 244 239 237 236 235 235 231 224 223 226 228
337 338 339 341 345 350 351 349 350 352 351 352 354 355 358 0 1 1 358 355 356 359 358 349 343 350 2 5 7 8 3 2 2 360 357 357 355 350 346 344 338 331 329 327 325 325 326 325 322 317 312 310 306 301 296 288 279 272 265 255 251 257 264 263 260 260 259 257 256 256 256 256 255 253 250 245 238 234 234 236 232 226 226 227 225
338 339 340 345 348 351 354 352 352 355 354 351 351 353 359 1 2 1 357 356 0 0 355 350 349 354 0 0 1 4 3 2 2 0 357 354 353 350 345 343 340 333 327 325 323 323 323 323 323 319 312 311 310 304 299 293 285 276 268 262 262 266 267 266 263 261 258 256 255 255 255 256 256 255 252 249 245 238 234 233 233 231 230 227 224
343 343 341 346 349 351 356 358 357 358 356 353 351 353 359 3 4 3 359 358 0 358 353 353 352 351 354 355 354 355 357 357 359 0 358 354 351 349 344 341 338 333 328 325 324 322 321 320 321 318 311 311 311 305 300 297 289 279 271 271 273 269 265 265 263 257 252 250 249 250 251 252 253 252 250 247 245 243 239 236 234 233 232 230 228
346 346 342 346 349 351 357 2 3 3 359 355 353 352 356 2 5 5 2 358 356 353 352 353 351 346 347 350 349 350 351 351 352 354 355 354 351 349 345 340 337 333 328 325 324 324 323 324 324 319 313 312 310 304 300 297 293 287 279 276 275 268 263 261 258 252 248 245 242 244 247 249 249 249 250 248 245 243 242 240 236 233 232 234 234
349 349 344 345 347 351 1 10 10 6 0 355 352 352 355 359 2 4 3 359 354 349 348 350 348 343 342 343 344 346 347 346 347 349 351 351 350 348 344 340 339 338 332 327 326 327 327 328 325 318 313 312 308 302 301 300 297 293 286 280 274 265 258 254 252 248 243 240 241 244 247 250 251 251 252 252 249 245 243 242 238 234 233 234 234
353 352 348 348 349 351 4 18 14 5 359 355 353 354 354 355 358 0 1 358 354 349 347 347 345 342 340 339 341 343 344 344 346 347 348 349 348 347 343 339 341 342 337 332 333 334 333 331 327 321 317 314 306 303 306 309 307 300 291 285 276 263 254 250 248 242 238 239 243 246 250 255 257 257 257 255 252 247 241 234 230 227 226 228 228
353 352 350 353 355 355 1 10 7 2 359 355 354 356 355 353 355 357 357 356 354 350 347 346 345 343 340 339 338 339 342 344 345 346 347 347 345 344 342 340 341 341 338 335 337 338 337 336 335 332 326 316 309 310 314 317 318 311 299 290 280 267 257 252 246 242 242 245 249 253 258 262 263 260 256 250 246 242 233 224 218 216 216 217 219
351 350 351 355 359 360 359 356 355 357 357 355 355 358 358 355 353 354 353 351 351 350 347 346 346 344 340 339 338 339 341 343 344 345 346 345 342 341 340 340 339 338 336 335 336 337 337 338 337 332 325 319 317 321 324 326 327 323 312 298 287 276 267 261 256 253 253 255 258 262 266 267 264 256 247 240 237 233 226 219 213 211 212 215 219
346 346 347 351 353 354 354 350 348 350 353 354 357 359 0 358 354 353 352 347 344 345 345 343 344 344 340 339 338 336 337 340 343 343 342 340 339 338 338 339 338 336 333 331 331 332 336 339 337 330 325 325 326 328 332 335 334 332 325 311 295 285 277 268 262 260 260 262 264 266 266 263 259 253 245 238 235 233 228 223 220 219 220 222 230
340 341 341 343 344 345 348 347 345 345 346 351 357 0 2 0 352 347 349 346 339 338 338 340 343 343 340 341 339 334 331 333 336 336 335 335 336 334 334 335 335 333 331 328 327 331 336 341 342 337 332 330 331 332 335 337 335 333 329 318 303 291 281 270 264 265 267 267 264 262 262 260 257 253 246 238 235 234 232 231 233 235 235 238 243
329 333 334 334 334 337 342 344 345 345 344 346 350 354 1 7 3 351 346 345 340 335 336 340 343 342 340 341 340 332 326 327 330 332 333 334 333 332 332 332 333 335 334 330 330 334 338 341 343 342 338 333 331 332 334 334 333 330 325 318 307 295 283 274 270 270 270 269 266 263 259 255 252 248 244 239 237 235 231 230 232 234 235 236 238
316 321 324 326 326 329 334 339 343 344 345 346 347 348 352 1 8 7 359 353 351 349 350 347 345 344 342 339 338 334 329 328 330 332 333 334 334 334 333 334 339 343 343 340 341 345 344 343 344 345 343 338 334 333 333 331 329 326 323 317 308 296 286 280 276 273 271 269 266 262 258 254 252 250 246 241 239 236 230 227 226 228 230 231 233
303 312 319 319 319 321 326 331 336 339 343 347 349 350 351 351 353 355 359 2 1 357 358 354 348 346 345 340 338 338 336 335 336 336 336 337 336 335 337 341 345 349 350 351 355 353 348 346 346 345 342 339 336 335 334 331 329 328 324 318 311 304 298 293 286 279 274 270 266 263 259 255 255 255 251 243 238 232 227 222 220 222 225 228 234
295 306 313 313 313 315 318 323 329 333 338 343 347 352 354 350 346 344 347 354 358 357 359 1 356 349 345 342 340 340 339 340 344 344 342 341 339 338 341 345 349 354 357 360 2 357 351 349 347 345 341 337 334 334 335 334 332 331 327 321 316 313 309 303 296 285 276 271 268 266 261 255 253 254 249 241 233 227 223 221 221 222 224 230 238
289 298 306 308 309 311 313 318 322 326 333 337 338 343 349 350 346 342 342 345 345 341 345 354 359 355 349 345 343 342 341 345 350 349 345 342 342 342 342 343 350 358 3 3 1 355 349 345 343 341 339 335 332 332 335 337 336 334 331 328 324 319 311 304 298 289 279 271 266 263 259 253 247 245 243 236 228 228 230 229 228 229 231 237 245
284 292 299 302 304 307 309 314 316 318 325 330 330 335 341 343 343 343 341 339 335 331 334 344 353 356 353 350 346 343 343 348 351 349 346 343 342 343 343 345 349 353 355 356 355 351 346 341 337 335 335 333 331 330 334 339 339 334 332 333 331 326 317 308 301 292 282 272 264 260 257 250 246 246 247 241 235 236 240 240 240 243 245 248 255
280 285 291 296 299 299 302 306 309 313 318 322 323 328 333 334 334 335 335 333 330 328 330 336 344 349 353 356 351 344 345 350 350 346 346 346 345 347 350 350 349 346 344 346 346 342 339 337 335 333 331 330 330 332 339 343 341 333 329 330 330 328 322 314 306 298 287 276 267 262 257 252 251 249 245 246 247 248 249 251 252 253 255 257 261
276 280 285 291 292 291 293 297 302 305 310 314 316 318 321 323 325 326 327 328 328 327 329 335 340 342 347 355 354 347 346 351 351 345 344 346 347 349 352 351 348 343 340 341 339 335 332 330 329 328 327 327 328 332 337 340 340 336 331 327 327 326 321 312 303 297 290 281 273 268 262 258 257 253 248 249 251 251 252 255 256 258 261 264 267
270 274 279 285 287 285 286 289 293 297 301 304 306 308 311 316 319 320 321 324 325 326 329 334 338 339 341 346 348 344 344 347 349 346 347 349 351 353 352 348 345 343 339 337 335 330 326 324 323 320 318 319 321 323 327 330 330 330 329 326 323 323 320 311 299 287 280 276 273 269 266 263 259 255 252 252 253 255 258 259 260 262 264 265 266
266 269 273 279 283 281 280 283 286 290 293 296 298 302 307 311 315 316 319 321 323 325 327 329 332 337 339 341 341 342 342 343 344 345 346 347 349 350 349 346 343 340 337 336 335 331 327 325 323 318 312 309 309 312 316 318 318 317 317 316 316 317 318 316 309 293 277 272 269 268 269 270 266 261 259 256 256 260 263 264 265 266 266 265 266
262 263 265 272 278 278 276 277 281 284 288 291 294 298 303 308 311 313 316 317 318 320 322 323 326 333 338 339 339 339 338 336 336 338 339 340 343 345 345 344 342 339 335 333 333 333 330 328 325 320 313 308 304 303 306 309 309 308 307 306 306 306 308 312 313 307 295 286 279 274 273 274 273 270 266 262 261 262 264 267 269 268 268 269 270
258 258 260 266 271 272 270 271 274 279 283 286 289 293 298 303 307 309 310 311 313 314 315 317 323 330 334 335 334 332 327 325 327 330 331 333 335 338 340 341 340 337 335 331 330 329 329 327 326 324 320 313 306 303 303 305 305 305 303 302 301 300 298 300 302 304 302 297 289 283 278 275 274 274 273 271 271 269 268 270 271 271 271 272 272
255 255 256 260 264 266 267 268 270 274 276 280 284 289 292 296 300 303 304 307 310 311 312 315 322 327 330 330 330 328 323 320 321 322 323 325 327 330 333 335 335 334 332 330 328 327 325 323 323 323 322 318 312 306 302 301 302 302 301 299 298 297 296 295 294 294 293 290 287 284 281 277 274 273 274 274 274 272 271 271 272 272 272 272 271
253 254 254 255 259 263 265 266 266 268 272 277 282 285 286 290 294 297 299 302 306 309 311 315 321 325 327 329 329 327 325 325 323 321 320 320 321 322 324 327 328 329 328 325 324 324 321 319 318 318 318 318 315 309 304 301 298 296 296 295 295 293 293 293 293 291 287 285 282 279 276 274 271 270 270 269 269 269 270 270 271 271 270 271 270
250 251 250 251 255 259 262 263 264 266 271 276 279 281 283 286 289 292 295 299 303 307 311 315 320 322 323 326 327 325 325 328 328 326 323 319 316 317 319 320 321 323 323 322 322 321 319 316 314 313 312 312 311 309 305 302 298 295 293 291 289 288 287 287 289 289 288 285 281 276 271 268 265 264 264 265 265 266 267 268 269 271 270 270 269
246 248 247 248 251 255 258 259 262 266 269 272 275 278 281 282 285 289 293 296 301 306 310 314 318 318 318 320 322 322 324 326 327 329 329 325 322 323 324 323 321 320 318 318 319 320 319 317 315 312 310 308 307 305 303 302 301 298 295 291 286 285 285 285 283 282 281 279 278 279 277 273 269 267 266 266 266 265 264 264 264 265 266 266 266
244 244 245 246 248 252 255 257 258 261 265 268 271 275 277 279 282 286 290 294 299 303 307 311 314 314 313 315 316 318 322 324 326 328 330 327 326 328 330 329 326 320 315 313 313 313 316 317 316 313 310 307 304 302 300 299 298 298 297 294 289 286 285 284 281 279 277 275 274 274 275 275 274 273 273 272 271 268 266 264 262 262 264 265 267
242 243 243 245 248 251 254 255 254 256 260 263 267 271 275 279 282 285 288 292 296 299 302 306 309 308 309 312 314 315 319 321 321 325 327 324 323 326 329 330 328 322 316 312 308 306 308 310 311 312 312 308 305 302 299 296 296 294 293 293 292 289 287 284 280 278 277 276 274 271 269 269 270 272 274 275 272 269 268 266 265 266 269 270 271
242 242 242 244 247 249 252 253 252 254 258 261 265 269 273 278 281 284 287 290 293 296 299 302 304 305 306 310 313 315 316 316 316 318 320 320 320 321 322 322 322 321 319 316 311 307 305 303 302 304 305 305 305 304 301 298 297 294 292 291 290 289 288 285 282 279 278 276 274 272 269 266 264 265 267 269 269 270 270 269 269 271 274 274 274
242 243 243 244 245 248 251 254 254 255 258 261 263 267 271 275 279 283 286 288 290 294 296 299 302 304 305 308 312 314 314 313 314 315 315 315 315 315 313 311 313 315 318 321 323 321 319 314 308 304 302 300 300 300 300 299 298 297 294 293 289 286 284 282 281 280 279 276 274 272 270 267 265 262 261 262 263 267 269 271 272 274 276 276 275
242 244 244 245 246 248 252 254 255 256 258 259 261 265 270 273 276 280 284 286 288 292 295 297 300 303 305 308 311 311 311 312 313 314 314 314 313 311 308 307 308 310 314 318 324 328 329 328 325 319 313 307 303 301 299 299 298 297 296 294 291 286 283 279 278 278 278 277 275 273 270 268 267 264 260 259 258 260 263 267 270 273 274 274 275
241 244 245 246 247 249 251 253 254 255 257 258 260 264 268 272 275 279 282 284 287 292 294 296 298 301 304 307 309 309 309 311 311 312 314 315 314 312 308 306 306 309 311 314 317 320 321 324 326 327 325 320 313 309 304 302 300 298 296 293 290 287 284 281 278 276 276 275 275 273 271 268 267 266 264 262 260 260 263 266 268 271 272 273 273